ANZ281 WSSS-NZAA

Flight info

Callsign ANZ281
Flight time N/A
Altitude 33000
Route IDBUD T24 SURGA M635 ATMAP A576 CIN/N0492F350 T29 AYE G222 PKS A576 TESAT L521 EVONN/N0488F370 L521 LUNBI
Aircraft B77W/H-SDE1E2E3GHIJ3J4J5M1P2RWXYZ/LB1D1

Departure

Time 2026-05-07 00:49
Airport Singapore Changi Airport (WSSS)

Arrival

Time N/A
Airport Auckland International Airport (NZAA)
Time Latitude Longitude Altitude Speed Heading
2026-05-06 23:41 1.36180 103.98774 1 ft 0 kts 112°
2026-05-07 00:32 1.36187 103.98758 27 ft 4 kts 112°
2026-05-07 00:32 1.36198 103.98734 28 ft 4 kts 112°
2026-05-07 00:32 1.36206 103.98713 28 ft 4 kts 118°
2026-05-07 00:33 1.36211 103.98704 26 ft 4 kts 169°
2026-05-07 00:33 1.36230 103.98706 26 ft 4 kts 199°
2026-05-07 00:33 1.36254 103.98715 27 ft 4 kts 202°
2026-05-07 00:33 1.36279 103.98726 26 ft 4 kts 202°
2026-05-07 00:34 1.36292 103.98731 26 ft 0 kts 202°
2026-05-07 00:37 1.36290 103.98730 26 ft 3 kts 202°
2026-05-07 00:37 1.36240 103.98710 29 ft 8 kts 202°
2026-05-07 00:37 1.36179 103.98684 29 ft 11 kts 202°
2026-05-07 00:37 1.36111 103.98656 29 ft 11 kts 204°
2026-05-07 00:38 1.36055 103.98604 29 ft 12 kts 235°
2026-05-07 00:38 1.36006 103.98528 29 ft 13 kts 232°
2026-05-07 00:38 1.35925 103.98477 29 ft 15 kts 204°
2026-05-07 00:38 1.35828 103.98436 29 ft 17 kts 203°
2026-05-07 00:39 1.35721 103.98391 29 ft 17 kts 203°
2026-05-07 00:39 1.35614 103.98346 29 ft 17 kts 203°
2026-05-07 00:39 1.35507 103.98301 29 ft 17 kts 202°
2026-05-07 00:39 1.35400 103.98257 29 ft 17 kts 202°
2026-05-07 00:40 1.35293 103.98212 29 ft 17 kts 203°
2026-05-07 00:40 1.35222 103.98182 29 ft 17 kts 203°
2026-05-07 00:40 1.35116 103.98136 29 ft 17 kts 203°
2026-05-07 00:40 1.35009 103.98091 29 ft 17 kts 203°
2026-05-07 00:41 1.34901 103.98046 29 ft 17 kts 203°
2026-05-07 00:41 1.34793 103.98000 29 ft 17 kts 203°
2026-05-07 00:41 1.34711 103.98000 29 ft 13 kts 133°
2026-05-07 00:41 1.34670 103.98086 29 ft 16 kts 112°
2026-05-07 00:42 1.34626 103.98191 29 ft 16 kts 113°
2026-05-07 00:42 1.34582 103.98295 29 ft 16 kts 113°
2026-05-07 00:42 1.34537 103.98401 29 ft 17 kts 113°
2026-05-07 00:42 1.34491 103.98508 29 ft 17 kts 113°
2026-05-07 00:43 1.34445 103.98616 29 ft 17 kts 113°
2026-05-07 00:43 1.34400 103.98723 29 ft 17 kts 112°
2026-05-07 00:43 1.34355 103.98831 29 ft 17 kts 112°
2026-05-07 00:43 1.34271 103.98886 29 ft 17 kts 197°
2026-05-07 00:44 1.34163 103.98841 29 ft 17 kts 203°
2026-05-07 00:44 1.34054 103.98795 29 ft 17 kts 202°
2026-05-07 00:44 1.33945 103.98749 29 ft 17 kts 202°
2026-05-07 00:44 1.33837 103.98703 29 ft 17 kts 203°
2026-05-07 00:45 1.33728 103.98657 29 ft 17 kts 203°
2026-05-07 00:45 1.33619 103.98611 29 ft 17 kts 203°
2026-05-07 00:45 1.33512 103.98566 29 ft 17 kts 203°
2026-05-07 00:45 1.33403 103.98520 29 ft 17 kts 203°
2026-05-07 00:46 1.33295 103.98474 29 ft 17 kts 203°
2026-05-07 00:46 1.33186 103.98428 29 ft 17 kts 203°
2026-05-07 00:46 1.33077 103.98382 29 ft 17 kts 203°
2026-05-07 00:46 1.32996 103.98351 29 ft 9 kts 186°
2026-05-07 00:47 1.32958 103.98387 29 ft 9 kts 120°
2026-05-07 00:47 1.32931 103.98448 29 ft 10 kts 112°
2026-05-07 00:47 1.32935 103.98510 29 ft 10 kts 46°
2026-05-07 00:47 1.32993 103.98542 29 ft 6 kts 23°
2026-05-07 00:48 1.33001 103.98545 29 ft 1 kts 23°
2026-05-07 00:48 1.33005 103.98547 29 ft 1 kts 23°
2026-05-07 00:48 1.33081 103.98579 29 ft 31 kts 23°
2026-05-07 00:48 1.33497 103.98754 29 ft 98 kts 22°
2026-05-07 00:49 1.34321 103.99101 29 ft 156 kts 22°
2026-05-07 00:49 1.35471 103.99584 42 ft 198 kts 22°
2026-05-07 00:49 1.36751 104.00128 512 ft 200 kts 24°
2026-05-07 00:49 1.38039 104.00683 1006 ft 204 kts 23°
2026-05-07 00:50 1.39351 104.01235 1516 ft 205 kts 23°
2026-05-07 00:50 1.40695 104.01799 1827 ft 219 kts 23°
2026-05-07 00:50 1.42172 104.02420 2022 ft 242 kts 23°
2026-05-07 00:50 1.43799 104.03103 2317 ft 260 kts 23°
2026-05-07 00:51 1.45497 104.03816 2892 ft 268 kts 24°
2026-05-07 00:51 1.47063 104.04816 3415 ft 271 kts 51°
2026-05-07 00:51 1.47908 104.06477 4021 ft 272 kts 82°
2026-05-07 00:51 1.47820 104.08348 4705 ft 271 kts 106°
2026-05-07 00:52 1.47132 104.10079 5309 ft 273 kts 116°
2026-05-07 00:52 1.46314 104.11810 5956 ft 277 kts 116°
2026-05-07 00:52 1.45486 104.13556 6617 ft 279 kts 116°
2026-05-07 00:52 1.44658 104.15312 7264 ft 280 kts 115°
2026-05-07 00:53 1.43828 104.17084 7884 ft 283 kts 115°
2026-05-07 00:53 1.42993 104.18874 8505 ft 285 kts 115°
2026-05-07 00:53 1.42155 104.20681 9120 ft 288 kts 115°
2026-05-07 00:53 1.41312 104.22504 9749 ft 290 kts 115°
2026-05-07 00:54 1.40461 104.24343 10306 ft 294 kts 114°
2026-05-07 00:54 1.39575 104.26258 10517 ft 313 kts 114°
2026-05-07 00:54 1.38631 104.28302 10686 ft 333 kts 114°
2026-05-07 00:54 1.37631 104.30466 10843 ft 354 kts 114°
2026-05-07 00:55 1.36570 104.32761 11075 ft 371 kts 114°
2026-05-07 00:55 1.35477 104.35123 11566 ft 379 kts 114°
2026-05-07 00:55 1.34350 104.37530 12165 ft 381 kts 117°
2026-05-07 00:55 1.32748 104.39656 12635 ft 390 kts 138°
2026-05-07 00:56 1.30463 104.41133 13290 ft 395 kts 155°
2026-05-07 00:56 1.27832 104.41957 13897 ft 398 kts 164°
2026-05-07 00:56 1.25121 104.42621 14384 ft 404 kts 165°
2026-05-07 00:56 1.22369 104.43280 14944 ft 408 kts 165°
2026-05-07 00:57 1.19597 104.43959 15536 ft 411 kts 164°
2026-05-07 00:57 1.16810 104.44661 16113 ft 414 kts 164°
2026-05-07 00:57 1.14006 104.45382 16663 ft 418 kts 164°
2026-05-07 00:57 1.11178 104.46113 17195 ft 422 kts 164°
2026-05-07 00:58 1.08324 104.46878 17727 ft 426 kts 163°
2026-05-07 00:58 1.05488 104.47667 18237 ft 430 kts 163°
2026-05-07 00:58 1.02592 104.48481 18705 ft 433 kts 163°
2026-05-07 00:58 0.99683 104.49298 19175 ft 435 kts 163°
2026-05-07 00:59 0.93820 104.50938 20128 ft 441 kts 163°
2026-05-07 00:59 0.90851 104.51764 20587 ft 443 kts 163°
2026-05-07 00:59 0.87869 104.52593 21034 ft 446 kts 163°
2026-05-07 01:00 0.84866 104.53427 21478 ft 449 kts 163°
2026-05-07 01:00 0.81842 104.54267 21930 ft 452 kts 163°
2026-05-07 01:00 0.78800 104.55113 22363 ft 455 kts 163°
2026-05-07 01:00 0.75735 104.55964 22788 ft 458 kts 163°
2026-05-07 01:01 0.72658 104.56819 23208 ft 460 kts 163°
2026-05-07 01:01 0.69564 104.57679 23589 ft 463 kts 163°
2026-05-07 01:01 0.66456 104.58542 23931 ft 465 kts 163°
2026-05-07 01:01 0.63329 104.59438 24278 ft 467 kts 162°
2026-05-07 01:02 0.60209 104.60372 24624 ft 469 kts 161°
2026-05-07 01:02 0.57073 104.61320 24952 ft 471 kts 161°
2026-05-07 01:02 0.53929 104.62263 25292 ft 474 kts 162°
2026-05-07 01:02 0.50769 104.63219 25589 ft 472 kts 159°
2026-05-07 01:03 0.47837 104.64688 25726 ft 474 kts 142°
2026-05-07 01:03 0.45447 104.66952 25980 ft 474 kts 126°
2026-05-07 01:03 0.43719 104.69730 26304 ft 470 kts 118°
2026-05-07 01:03 0.42157 104.72572 26552 ft 474 kts 118°
2026-05-07 01:04 0.40547 104.75467 26824 ft 477 kts 118°
2026-05-07 01:04 0.38913 104.78361 27130 ft 479 kts 118°
2026-05-07 01:04 0.37259 104.81252 27445 ft 481 kts 119°
2026-05-07 01:04 0.35584 104.84156 27736 ft 483 kts 119°
2026-05-07 01:05 0.33897 104.87070 28006 ft 485 kts 119°
2026-05-07 01:05 0.32206 104.89990 28273 ft 487 kts 119°
2026-05-07 01:05 0.30511 104.92918 28525 ft 489 kts 119°
2026-05-07 01:05 0.28806 104.95866 28775 ft 490 kts 119°
2026-05-07 01:06 0.27099 104.98820 29017 ft 492 kts 119°
2026-05-07 01:06 0.25384 105.01787 29246 ft 494 kts 119°
2026-05-07 01:06 0.23665 105.04759 29526 ft 494 kts 119°
2026-05-07 01:06 0.21944 105.07733 29881 ft 493 kts 119°
2026-05-07 01:07 0.20234 105.10688 30206 ft 492 kts 119°
2026-05-07 01:07 0.18519 105.13652 30483 ft 491 kts 119°
2026-05-07 01:07 0.16832 105.16568 30756 ft 491 kts 119°
2026-05-07 01:07 0.15098 105.19566 31026 ft 491 kts 119°
2026-05-07 01:08 0.13413 105.22479 31292 ft 491 kts 119°
2026-05-07 01:08 0.11707 105.25429 31567 ft 490 kts 119°
2026-05-07 01:08 0.10000 105.28380 31842 ft 490 kts 119°
2026-05-07 01:08 0.08296 105.31326 32130 ft 489 kts 119°
2026-05-07 01:09 0.06591 105.34274 32404 ft 489 kts 119°
2026-05-07 01:09 0.04891 105.37215 32666 ft 489 kts 119°
2026-05-07 01:09 0.03166 105.40197 32807 ft 491 kts 119°
2026-05-07 01:10 -0.00256 105.46114 32877 ft 490 kts 119°
2026-05-07 01:10 -0.03653 105.51987 32897 ft 487 kts 119°
2026-05-07 01:11 -0.07037 105.57839 32880 ft 486 kts 119°
2026-05-07 01:11 -0.10401 105.63656 32878 ft 486 kts 119°
2026-05-07 01:12 -0.13784 105.69505 32895 ft 487 kts 120°
2026-05-07 01:12 -0.17174 105.75366 32895 ft 487 kts 119°
2026-05-07 01:13 -0.20568 105.81235 32890 ft 488 kts 120°
2026-05-07 01:13 -0.23964 105.87107 32874 ft 488 kts 119°
2026-05-07 01:14 -0.27366 105.92990 32879 ft 488 kts 120°
2026-05-07 01:14 -0.30764 105.98866 32894 ft 488 kts 120°
2026-05-07 01:15 -0.34161 106.04740 32881 ft 488 kts 120°
2026-05-07 01:15 -0.37559 106.10616 32876 ft 488 kts 120°
2026-05-07 01:16 -0.40957 106.16492 32883 ft 487 kts 120°
2026-05-07 01:16 -0.44325 106.22316 32882 ft 487 kts 120°
2026-05-07 01:17 -0.47712 106.28174 32879 ft 487 kts 120°
2026-05-07 01:17 -0.51102 106.34038 32877 ft 487 kts 120°
2026-05-07 01:18 -0.54494 106.39905 32894 ft 487 kts 120°
2026-05-07 01:18 -0.57889 106.45779 32880 ft 488 kts 120°
2026-05-07 01:19 -0.61359 106.51605 32878 ft 488 kts 123°
2026-05-07 01:19 -0.65627 106.56880 32902 ft 488 kts 131°
2026-05-07 01:20 -0.69419 106.61075 32877 ft 489 kts 131°
2026-05-07 01:20 -0.73974 106.66135 32879 ft 489 kts 131°
2026-05-07 01:21 -0.78505 106.71220 32882 ft 489 kts 131°
2026-05-07 01:21 -0.83016 106.76302 32900 ft 489 kts 131°
2026-05-07 01:22 -0.87527 106.81387 32886 ft 488 kts 131°
2026-05-07 01:22 -0.92034 106.86464 32883 ft 488 kts 131°
2026-05-07 01:23 -0.96511 106.91507 32895 ft 488 kts 131°
2026-05-07 01:23 -1.01015 106.96579 32897 ft 487 kts 131°
2026-05-07 01:24 -1.05522 107.01656 32899 ft 488 kts 131°
2026-05-07 01:24 -1.10026 107.06729 32875 ft 488 kts 131°
2026-05-07 01:25 -1.14526 107.11798 32886 ft 487 kts 131°
2026-05-07 01:25 -1.19027 107.16870 32878 ft 487 kts 131°
2026-05-07 01:26 -1.23527 107.21940 32893 ft 487 kts 131°
2026-05-07 01:26 -1.28016 107.26997 32899 ft 486 kts 131°
2026-05-07 01:27 -1.32512 107.32065 32883 ft 486 kts 131°
2026-05-07 01:27 -1.37006 107.37130 32882 ft 487 kts 130°
2026-05-07 01:28 -1.41420 107.42206 32895 ft 487 kts 130°
2026-05-07 01:28 -1.45833 107.47349 32898 ft 487 kts 130°
2026-05-07 01:29 -1.50256 107.52497 32900 ft 488 kts 130°
2026-05-07 01:29 -1.54685 107.57638 32899 ft 488 kts 130°
2026-05-07 01:30 -1.59125 107.62788 32882 ft 489 kts 130°
2026-05-07 01:30 -1.63568 107.67942 32880 ft 489 kts 130°
2026-05-07 01:31 -1.68014 107.73099 32898 ft 489 kts 130°
2026-05-07 01:31 -1.72454 107.78252 32899 ft 489 kts 130°
2026-05-07 01:32 -1.76889 107.83398 32897 ft 488 kts 130°
2026-05-07 01:32 -1.81320 107.88540 32881 ft 488 kts 130°
2026-05-07 01:33 -1.85746 107.93678 32880 ft 487 kts 129°
2026-05-07 01:33 -1.90141 107.98779 32899 ft 486 kts 129°
2026-05-07 01:34 -1.94557 108.03906 32897 ft 486 kts 129°
2026-05-07 01:34 -1.98968 108.09028 32884 ft 485 kts 129°
2026-05-07 01:35 -2.03369 108.14139 32883 ft 485 kts 129°
2026-05-07 01:35 -2.07766 108.19240 32899 ft 484 kts 130°
2026-05-07 01:36 -2.12168 108.24337 32901 ft 484 kts 130°
2026-05-07 01:36 -2.16580 108.29445 32885 ft 485 kts 130°
2026-05-07 01:37 -2.20985 108.34550 32882 ft 485 kts 130°
2026-05-07 01:37 -2.25395 108.39661 32899 ft 485 kts 130°
2026-05-07 01:38 -2.29814 108.44783 32900 ft 486 kts 130°
2026-05-07 01:38 -2.34226 108.49897 32900 ft 486 kts 130°
2026-05-07 01:39 -2.38612 108.54982 32883 ft 486 kts 130°
2026-05-07 01:39 -2.43032 108.60108 32901 ft 486 kts 130°
2026-05-07 01:40 -2.47453 108.65235 32903 ft 486 kts 130°
2026-05-07 01:40 -2.51877 108.70357 32900 ft 487 kts 130°
2026-05-07 01:41 -2.56322 108.75485 32901 ft 487 kts 130°
2026-05-07 01:41 -2.60727 108.80570 32886 ft 487 kts 130°
2026-05-07 01:42 -2.65163 108.85694 32900 ft 487 kts 130°
2026-05-07 01:42 -2.69600 108.90823 32903 ft 487 kts 130°
2026-05-07 01:43 -2.74040 108.95954 32881 ft 487 kts 130°
2026-05-07 01:43 -2.78478 109.01084 32900 ft 488 kts 130°
2026-05-07 01:44 -2.82919 109.06219 32902 ft 488 kts 130°
2026-05-07 01:44 -2.87362 109.11357 32903 ft 488 kts 130°
2026-05-07 01:45 -2.91772 109.16461 32890 ft 488 kts 130°
2026-05-07 01:45 -2.96200 109.21607 32900 ft 488 kts 130°
2026-05-07 01:46 -3.00655 109.26789 32906 ft 488 kts 130°
2026-05-07 01:46 -3.05082 109.31939 32887 ft 488 kts 130°
2026-05-07 01:47 -3.09509 109.37087 32902 ft 488 kts 130°
2026-05-07 01:47 -3.13919 109.42216 32904 ft 488 kts 130°
2026-05-07 01:48 -3.18346 109.47366 32898 ft 488 kts 130°
2026-05-07 01:48 -3.22772 109.52515 32901 ft 488 kts 130°
2026-05-07 01:49 -3.27199 109.57666 32905 ft 488 kts 130°
2026-05-07 01:49 -3.31622 109.62813 32900 ft 487 kts 130°
2026-05-07 01:50 -3.36043 109.67959 32900 ft 487 kts 130°
2026-05-07 01:50 -3.40461 109.73102 32903 ft 487 kts 130°
2026-05-07 01:51 -3.44891 109.78260 32886 ft 488 kts 130°
2026-05-07 01:51 -3.49311 109.83407 32903 ft 488 kts 130°
2026-05-07 01:52 -3.53736 109.88560 32901 ft 487 kts 130°
2026-05-07 01:52 -3.58156 109.93708 32903 ft 487 kts 130°
2026-05-07 01:53 -3.62570 109.98852 32906 ft 487 kts 130°
2026-05-07 01:53 -3.66980 110.03991 32900 ft 486 kts 130°
2026-05-07 01:54 -3.71395 110.09136 32904 ft 486 kts 130°
2026-05-07 01:54 -3.75799 110.14270 32910 ft 486 kts 130°
2026-05-07 01:55 -3.80208 110.19410 32898 ft 487 kts 130°
2026-05-07 01:55 -3.84626 110.24562 32899 ft 487 kts 130°
2026-05-07 01:56 -3.89045 110.29717 32897 ft 488 kts 130°
2026-05-07 01:56 -3.93471 110.34880 32881 ft 488 kts 130°
2026-05-07 01:57 -3.97870 110.40054 32899 ft 488 kts 128°
2026-05-07 01:57 -4.02030 110.45412 32902 ft 487 kts 126°
2026-05-07 01:58 -4.06114 110.50821 32903 ft 486 kts 126°
2026-05-07 01:58 -4.09520 110.55286 32898 ft 485 kts 127°
2026-05-07 01:59 -4.13624 110.60617 32907 ft 485 kts 127°
2026-05-07 01:59 -4.18444 110.66860 32905 ft 488 kts 127°
2026-05-07 02:00 -4.21929 110.71375 32905 ft 489 kts 127°
2026-05-07 02:00 -4.26106 110.76791 32905 ft 492 kts 127°
2026-05-07 02:01 -4.30298 110.82229 32910 ft 495 kts 127°
2026-05-07 02:01 -4.34516 110.87700 32887 ft 494 kts 127°
2026-05-07 02:02 -4.38682 110.93105 32900 ft 493 kts 127°
2026-05-07 02:02 -4.42890 110.98567 32913 ft 496 kts 127°
2026-05-07 02:03 -4.47100 111.04033 32909 ft 493 kts 127°
2026-05-07 02:03 -4.51299 111.09485 32914 ft 496 kts 127°
2026-05-07 02:04 -4.55515 111.14961 32881 ft 494 kts 127°
2026-05-07 02:04 -4.59722 111.20428 32907 ft 496 kts 127°
2026-05-07 02:05 -4.63935 111.25890 32903 ft 495 kts 128°
2026-05-07 02:05 -4.68160 111.31336 32904 ft 495 kts 128°
2026-05-07 02:06 -4.72391 111.36786 32910 ft 495 kts 128°
2026-05-07 02:06 -4.76612 111.42230 32907 ft 494 kts 128°
2026-05-07 02:07 -4.80843 111.47691 32910 ft 496 kts 128°
2026-05-07 02:07 -4.87184 111.55879 32908 ft 496 kts 128°
2026-05-07 02:08 -4.91417 111.61347 32907 ft 496 kts 128°
2026-05-07 02:08 -4.95655 111.66821 32908 ft 497 kts 128°
2026-05-07 02:09 -4.99870 111.72268 32904 ft 490 kts 128°
2026-05-07 02:09 -5.04003 111.77610 32913 ft 485 kts 128°
2026-05-07 02:10 -5.08139 111.82957 32903 ft 483 kts 128°
2026-05-07 02:10 -5.12264 111.88291 32909 ft 484 kts 128°
2026-05-07 02:11 -5.16392 111.93631 32908 ft 484 kts 128°
2026-05-07 02:11 -5.20528 111.98980 32903 ft 484 kts 128°
2026-05-07 02:12 -5.24651 112.04316 32909 ft 484 kts 129°
2026-05-07 02:12 -5.28781 112.09661 32900 ft 483 kts 128°
2026-05-07 02:13 -5.32886 112.14976 32906 ft 484 kts 129°
2026-05-07 02:13 -5.37010 112.20317 32915 ft 485 kts 129°
2026-05-07 02:14 -5.41147 112.25674 32905 ft 484 kts 129°
2026-05-07 02:14 -5.45268 112.31014 32904 ft 484 kts 129°
2026-05-07 02:15 -5.49412 112.36384 32917 ft 489 kts 129°
2026-05-07 02:15 -5.53602 112.41814 32913 ft 493 kts 129°
2026-05-07 02:16 -5.57770 112.47219 32907 ft 493 kts 129°
2026-05-07 02:16 -5.61973 112.52671 32909 ft 492 kts 129°
2026-05-07 02:17 -5.66163 112.58106 32908 ft 492 kts 129°
2026-05-07 02:17 -5.70359 112.63550 32908 ft 492 kts 129°
2026-05-07 02:18 -5.74545 112.68983 32906 ft 491 kts 129°
2026-05-07 02:18 -5.78731 112.74419 32909 ft 490 kts 129°
2026-05-07 02:19 -5.82900 112.79834 32908 ft 489 kts 129°
2026-05-07 02:19 -5.87057 112.85235 32909 ft 489 kts 129°
2026-05-07 02:20 -5.91223 112.90648 32912 ft 490 kts 129°
2026-05-07 02:20 -5.95397 112.96072 32914 ft 491 kts 129°
2026-05-07 02:21 -5.99582 113.01514 32909 ft 493 kts 129°
2026-05-07 02:21 -6.03752 113.06938 32909 ft 494 kts 129°
2026-05-07 02:22 -6.07988 113.12448 32907 ft 495 kts 129°
2026-05-07 02:22 -6.12156 113.17872 32881 ft 490 kts 129°
2026-05-07 02:23 -6.16301 113.23269 32904 ft 486 kts 129°
2026-05-07 02:23 -6.20428 113.28642 32905 ft 484 kts 129°
2026-05-07 02:24 -6.24719 113.33840 32908 ft 483 kts 136°
2026-05-07 02:24 -6.29789 113.38179 32905 ft 481 kts 146°
2026-05-07 02:25 -6.35250 113.42065 32899 ft 481 kts 146°
2026-05-07 02:25 -6.40717 113.45951 32910 ft 483 kts 146°
2026-05-07 02:26 -6.46192 113.49886 32896 ft 482 kts 146°
2026-05-07 02:26 -6.51657 113.53836 32910 ft 487 kts 146°
2026-05-07 02:27 -6.57208 113.57848 32914 ft 494 kts 146°
2026-05-07 02:27 -6.62805 113.61893 32909 ft 496 kts 146°
2026-05-07 02:28 -6.68425 113.65956 32903 ft 497 kts 146°
2026-05-07 02:28 -6.74059 113.70032 32908 ft 498 kts 146°
2026-05-07 02:29 -6.79665 113.74088 32897 ft 494 kts 146°
2026-05-07 02:29 -6.85225 113.78111 32908 ft 490 kts 146°
2026-05-07 02:30 -6.90764 113.82120 32909 ft 490 kts 146°
2026-05-07 02:30 -6.96272 113.86108 32914 ft 491 kts 146°
2026-05-07 02:31 -7.01838 113.90139 32908 ft 493 kts 146°
2026-05-07 02:31 -7.07410 113.94174 32907 ft 494 kts 146°
2026-05-07 02:32 -7.13000 113.98224 32903 ft 495 kts 146°
2026-05-07 02:32 -7.18599 114.02282 32909 ft 495 kts 146°
2026-05-07 02:33 -7.24169 114.06322 32909 ft 495 kts 146°
2026-05-07 02:33 -7.29761 114.10379 32907 ft 495 kts 146°
2026-05-07 02:34 -7.35350 114.14435 32906 ft 494 kts 146°
2026-05-07 02:34 -7.40932 114.18487 32906 ft 494 kts 146°
2026-05-07 02:35 -7.46512 114.22539 32910 ft 494 kts 146°
2026-05-07 02:35 -7.52087 114.26589 32911 ft 494 kts 146°
2026-05-07 02:36 -7.57657 114.30636 32913 ft 493 kts 146°
2026-05-07 02:36 -7.62291 114.34004 32918 ft 493 kts 146°
2026-05-07 02:37 -7.68764 114.38710 32917 ft 493 kts 146°
2026-05-07 02:37 -7.73427 114.42102 32923 ft 493 kts 146°
2026-05-07 02:38 -7.78992 114.46150 32921 ft 493 kts 146°
2026-05-07 02:38 -7.84558 114.50201 32924 ft 493 kts 146°
2026-05-07 02:39 -7.90129 114.54257 32922 ft 494 kts 146°
2026-05-07 02:39 -7.95702 114.58316 32927 ft 494 kts 146°
2026-05-07 02:40 -8.01280 114.62379 32926 ft 494 kts 146°
2026-05-07 02:40 -8.06856 114.66443 32925 ft 494 kts 146°
2026-05-07 02:41 -8.12433 114.70508 32926 ft 494 kts 146°
2026-05-07 02:41 -8.17981 114.74555 32933 ft 494 kts 146°
2026-05-07 02:42 -8.23561 114.78625 32934 ft 495 kts 146°
2026-05-07 02:42 -8.29135 114.82693 32935 ft 494 kts 146°
2026-05-07 02:43 -8.34709 114.86763 32941 ft 494 kts 146°
2026-05-07 02:43 -8.40315 114.90857 32945 ft 494 kts 146°
2026-05-07 02:44 -8.45886 114.94927 32949 ft 493 kts 146°
2026-05-07 02:44 -8.51418 114.98971 32929 ft 494 kts 146°
2026-05-07 02:45 -8.56987 115.03043 32929 ft 493 kts 146°
2026-05-07 02:45 -8.62544 115.07108 32946 ft 493 kts 146°
2026-05-07 02:46 -8.68106 115.11178 32948 ft 493 kts 146°
2026-05-07 02:46 -8.73669 115.15251 32932 ft 493 kts 146°
2026-05-07 02:47 -8.78916 115.19741 32931 ft 495 kts 139°
2026-05-07 02:47 -8.83905 115.24480 32927 ft 496 kts 139°
2026-05-07 02:48 -8.88964 115.29292 32945 ft 496 kts 139°
2026-05-07 02:48 -8.94016 115.34060 32940 ft 496 kts 139°
2026-05-07 02:49 -8.99046 115.38788 32923 ft 497 kts 139°
2026-05-07 02:49 -9.04144 115.43577 32918 ft 497 kts 139°
2026-05-07 02:50 -9.09213 115.48343 32926 ft 497 kts 139°
2026-05-07 02:50 -9.14251 115.53084 32937 ft 497 kts 139°
2026-05-07 02:51 -9.19318 115.57854 32919 ft 497 kts 139°
2026-05-07 02:51 -9.24380 115.62622 32923 ft 497 kts 139°
2026-05-07 02:52 -9.29443 115.67392 32921 ft 497 kts 139°
2026-05-07 02:52 -9.34501 115.72159 32921 ft 497 kts 139°
2026-05-07 02:53 -9.39562 115.76932 32929 ft 497 kts 139°
2026-05-07 02:53 -9.44617 115.81700 32929 ft 496 kts 139°
2026-05-07 02:54 -9.49676 115.86474 32933 ft 497 kts 139°
2026-05-07 02:54 -9.54730 115.91246 32922 ft 496 kts 139°
2026-05-07 02:55 -9.59786 115.96021 32922 ft 497 kts 140°
2026-05-07 02:55 -9.64841 116.00799 32929 ft 497 kts 140°
2026-05-07 02:56 -9.69903 116.05584 32927 ft 497 kts 140°
2026-05-07 02:56 -9.74928 116.10336 32931 ft 497 kts 140°
2026-05-07 02:57 -9.79994 116.15130 32926 ft 498 kts 140°
2026-05-07 02:57 -9.85063 116.19928 32930 ft 498 kts 140°
2026-05-07 02:58 -9.90127 116.24724 32935 ft 498 kts 140°
2026-05-07 02:58 -9.95193 116.29523 32932 ft 498 kts 140°
2026-05-07 02:59 -10.00254 116.34320 32935 ft 498 kts 140°
2026-05-07 02:59 -10.05309 116.39113 32932 ft 498 kts 140°
2026-05-07 03:00 -10.10370 116.43915 32936 ft 497 kts 140°
2026-05-07 03:00 -10.15420 116.48709 32939 ft 497 kts 140°
2026-05-07 03:01 -10.20438 116.53473 32931 ft 497 kts 140°
2026-05-07 03:01 -10.25486 116.58269 32934 ft 496 kts 140°
2026-05-07 03:02 -10.30531 116.63063 32933 ft 496 kts 140°
2026-05-07 03:02 -10.35570 116.67854 32941 ft 496 kts 140°
2026-05-07 03:03 -10.40612 116.72651 32941 ft 496 kts 140°
2026-05-07 03:03 -10.45657 116.77453 32934 ft 496 kts 140°
2026-05-07 03:04 -10.50701 116.82255 32935 ft 496 kts 140°
2026-05-07 03:04 -10.55736 116.87052 32936 ft 496 kts 140°
2026-05-07 03:05 -10.60740 116.91821 32938 ft 496 kts 140°
2026-05-07 03:05 -10.65778 116.96624 32937 ft 496 kts 140°
2026-05-07 03:06 -10.70811 117.01426 32939 ft 496 kts 140°
2026-05-07 03:06 -10.75849 117.06235 32935 ft 496 kts 140°
2026-05-07 03:07 -10.80889 117.11048 32936 ft 496 kts 140°
2026-05-07 03:07 -10.85931 117.15864 32942 ft 496 kts 141°
2026-05-07 03:08 -10.90936 117.20648 32937 ft 497 kts 141°
2026-05-07 03:08 -10.95977 117.25469 32936 ft 497 kts 141°
2026-05-07 03:09 -11.00954 117.30230 32941 ft 497 kts 141°
2026-05-07 03:09 -11.05994 117.35055 32940 ft 497 kts 141°
2026-05-07 03:10 -11.11028 117.39876 32937 ft 497 kts 141°
2026-05-07 03:10 -11.16067 117.44705 32937 ft 497 kts 141°
2026-05-07 03:11 -11.21079 117.49509 32941 ft 497 kts 141°
2026-05-07 03:11 -11.26123 117.54347 32940 ft 498 kts 141°
2026-05-07 03:12 -11.31166 117.59187 32939 ft 498 kts 141°
2026-05-07 03:12 -11.36216 117.64035 32936 ft 498 kts 141°
2026-05-07 03:13 -11.41260 117.68880 32941 ft 498 kts 141°
2026-05-07 03:13 -11.46310 117.73734 32942 ft 499 kts 141°
2026-05-07 03:14 -11.51322 117.78554 32945 ft 499 kts 141°
2026-05-07 03:15 -11.58896 117.85842 32946 ft 499 kts 141°
2026-05-07 03:15 -11.63950 117.90708 32946 ft 499 kts 141°
2026-05-07 03:16 -11.69001 117.95574 32944 ft 500 kts 141°
2026-05-07 03:16 -11.74063 118.00453 32943 ft 500 kts 141°
2026-05-07 03:17 -11.78267 118.04508 32948 ft 500 kts 141°
2026-05-07 03:17 -11.84147 118.10181 32947 ft 500 kts 141°
2026-05-07 03:18 -11.88358 118.14247 32940 ft 500 kts 141°
2026-05-07 03:18 -11.93412 118.19130 32946 ft 500 kts 141°
2026-05-07 03:19 -11.98474 118.24022 32949 ft 501 kts 141°
2026-05-07 03:19 -12.03537 118.28915 32949 ft 501 kts 141°
2026-05-07 03:20 -12.08603 118.33812 32946 ft 501 kts 141°
2026-05-07 03:20 -12.13675 118.38719 32945 ft 501 kts 141°
2026-05-07 03:21 -12.18683 118.43567 32950 ft 502 kts 141°
2026-05-07 03:21 -12.23725 118.48452 32950 ft 502 kts 141°
2026-05-07 03:22 -12.28794 118.53366 32949 ft 502 kts 141°
2026-05-07 03:22 -12.33874 118.58292 32948 ft 503 kts 141°
2026-05-07 03:23 -12.38953 118.63222 32949 ft 503 kts 141°
2026-05-07 03:23 -12.44033 118.68154 32949 ft 504 kts 141°
2026-05-07 03:24 -12.49122 118.73098 32949 ft 504 kts 141°
2026-05-07 03:24 -12.54176 118.78011 32949 ft 504 kts 141°
2026-05-07 03:25 -12.59265 118.82960 32946 ft 505 kts 141°
2026-05-07 03:25 -12.64365 118.87924 32952 ft 505 kts 141°
2026-05-07 03:26 -12.69462 118.92887 32952 ft 505 kts 142°
2026-05-07 03:26 -12.74562 118.97855 32951 ft 506 kts 142°
2026-05-07 03:27 -12.79657 119.02823 32949 ft 506 kts 142°
2026-05-07 03:27 -12.84733 119.07773 32953 ft 506 kts 142°
2026-05-07 03:28 -12.89834 119.12752 32954 ft 506 kts 142°
2026-05-07 03:28 -12.94935 119.17733 32955 ft 507 kts 142°
2026-05-07 03:29 -13.00044 119.22727 32951 ft 507 kts 142°
2026-05-07 03:29 -13.05153 119.27722 32956 ft 507 kts 142°
2026-05-07 03:30 -13.10232 119.32691 32955 ft 508 kts 142°
2026-05-07 03:30 -13.15349 119.37700 32959 ft 508 kts 142°
2026-05-07 03:31 -13.20465 119.42711 32956 ft 508 kts 142°
2026-05-07 03:31 -13.25591 119.47735 32956 ft 509 kts 142°
2026-05-07 03:32 -13.30716 119.52761 32958 ft 509 kts 142°
2026-05-07 03:32 -13.35837 119.57787 32962 ft 509 kts 142°
2026-05-07 03:33 -13.40934 119.62792 32960 ft 510 kts 142°
2026-05-07 03:33 -13.46054 119.67823 32958 ft 510 kts 142°
2026-05-07 03:34 -13.51190 119.72872 32956 ft 510 kts 142°
2026-05-07 03:34 -13.56322 119.77921 32965 ft 511 kts 142°
2026-05-07 03:35 -13.61455 119.82974 32961 ft 511 kts 142°
2026-05-07 03:35 -13.66593 119.88035 32961 ft 512 kts 142°
2026-05-07 03:36 -13.71735 119.93103 32959 ft 512 kts 142°
2026-05-07 03:36 -13.76848 119.98146 32961 ft 512 kts 142°
2026-05-07 03:37 -13.81994 120.03225 32962 ft 512 kts 142°
2026-05-07 03:37 -13.87139 120.08306 32962 ft 513 kts 142°
2026-05-07 03:38 -13.92282 120.13388 32966 ft 513 kts 142°
2026-05-07 03:38 -13.97435 120.18484 32966 ft 513 kts 142°
2026-05-07 03:39 -14.02581 120.23575 32968 ft 513 kts 142°
2026-05-07 03:39 -14.07725 120.28668 32954 ft 513 kts 142°
2026-05-07 03:40 -14.12872 120.33768 32962 ft 513 kts 142°
2026-05-07 03:40 -14.18018 120.38870 32983 ft 513 kts 142°
2026-05-07 03:41 -14.23163 120.43974 32969 ft 513 kts 142°
2026-05-07 03:41 -14.28284 120.49059 32973 ft 514 kts 142°
2026-05-07 03:42 -14.33433 120.54173 32975 ft 514 kts 142°
2026-05-07 03:42 -14.38586 120.59295 32976 ft 514 kts 142°
2026-05-07 03:43 -14.43739 120.64422 32980 ft 515 kts 142°
2026-05-07 03:43 -14.48903 120.69562 32983 ft 515 kts 143°
2026-05-07 03:44 -14.54027 120.74666 32982 ft 515 kts 143°
2026-05-07 03:44 -14.59186 120.79808 32987 ft 516 kts 143°
2026-05-07 03:45 -14.64346 120.84956 32985 ft 516 kts 143°
2026-05-07 03:45 -14.69511 120.90111 32983 ft 516 kts 143°
2026-05-07 03:46 -14.74679 120.95274 32985 ft 516 kts 143°
2026-05-07 03:46 -14.79810 121.00402 32989 ft 516 kts 143°
2026-05-07 03:47 -14.85004 121.05598 32986 ft 516 kts 143°
2026-05-07 03:47 -14.90134 121.10733 32987 ft 516 kts 143°
2026-05-07 03:48 -14.95294 121.15901 32982 ft 516 kts 143°
2026-05-07 03:48 -15.00455 121.21074 32987 ft 516 kts 143°
2026-05-07 03:49 -15.05610 121.26245 32985 ft 516 kts 143°
2026-05-07 03:49 -15.10769 121.31423 32990 ft 516 kts 143°
2026-05-07 03:50 -15.15927 121.36604 32991 ft 517 kts 143°
2026-05-07 03:50 -15.21092 121.41796 32993 ft 517 kts 143°
2026-05-07 03:51 -15.26224 121.46959 32990 ft 518 kts 143°
2026-05-07 03:51 -15.31393 121.52162 32993 ft 518 kts 143°
2026-05-07 03:52 -15.36567 121.57374 32994 ft 519 kts 143°
2026-05-07 03:52 -15.41752 121.62602 32993 ft 519 kts 143°
2026-05-07 03:53 -15.46937 121.67833 32988 ft 520 kts 143°
2026-05-07 03:53 -15.52094 121.73040 32995 ft 520 kts 143°
2026-05-07 03:54 -15.57281 121.78280 32997 ft 521 kts 143°
2026-05-07 03:54 -15.62479 121.83535 32996 ft 521 kts 143°
2026-05-07 03:55 -15.67675 121.88794 33000 ft 521 kts 143°
2026-05-07 03:55 -15.72843 121.94027 32996 ft 522 kts 143°
2026-05-07 03:56 -15.78036 121.99289 33002 ft 522 kts 143°
2026-05-07 03:56 -15.83239 122.04566 33002 ft 522 kts 143°
2026-05-07 03:57 -15.88445 122.09851 33001 ft 523 kts 143°
2026-05-07 03:57 -15.93652 122.15140 33001 ft 523 kts 143°
2026-05-07 03:58 -15.98852 122.20425 33002 ft 523 kts 144°
2026-05-07 03:58 -16.04050 122.25713 33001 ft 523 kts 144°
2026-05-07 03:59 -16.09205 122.30961 33002 ft 523 kts 144°
2026-05-07 03:59 -16.14408 122.36263 33000 ft 523 kts 144°
2026-05-07 04:00 -16.19606 122.41563 33004 ft 523 kts 144°
2026-05-07 04:00 -16.24804 122.46867 33006 ft 523 kts 144°
2026-05-07 04:01 -16.30000 122.52173 33003 ft 523 kts 144°
2026-05-07 04:01 -16.35200 122.57487 33003 ft 523 kts 144°
2026-05-07 04:02 -16.40398 122.62803 32997 ft 524 kts 144°
2026-05-07 04:02 -16.45601 122.68130 33010 ft 524 kts 144°
2026-05-07 04:03 -16.49924 122.72558 33008 ft 524 kts 144°
2026-05-07 04:03 -16.55970 122.78756 33008 ft 525 kts 144°
2026-05-07 04:04 -16.61178 122.84100 33007 ft 525 kts 144°
2026-05-07 04:04 -16.65544 122.88583 33009 ft 526 kts 144°
2026-05-07 04:05 -16.70763 122.93946 33005 ft 527 kts 144°
2026-05-07 04:05 -16.75953 122.99284 33013 ft 527 kts 144°
2026-05-07 04:06 -16.81177 123.04661 33018 ft 528 kts 144°
2026-05-07 04:06 -16.86407 123.10049 33018 ft 528 kts 144°
2026-05-07 04:07 -16.91636 123.15441 33018 ft 528 kts 144°
2026-05-07 04:07 -16.96864 123.20835 33024 ft 528 kts 144°
2026-05-07 04:08 -17.02091 123.26232 33022 ft 528 kts 144°
2026-05-07 04:08 -17.07319 123.31636 33023 ft 528 kts 144°
2026-05-07 04:09 -17.12545 123.37042 33019 ft 528 kts 144°
2026-05-07 04:09 -17.17741 123.42421 33030 ft 528 kts 144°
2026-05-07 04:10 -17.22966 123.47835 33031 ft 529 kts 144°
2026-05-07 04:10 -17.28208 123.53271 33018 ft 529 kts 144°
2026-05-07 04:11 -17.33438 123.58699 33027 ft 530 kts 144°
2026-05-07 04:11 -17.38679 123.64144 33026 ft 530 kts 144°
2026-05-07 04:12 -17.43919 123.69593 33026 ft 530 kts 144°
2026-05-07 04:12 -17.49127 123.75013 32997 ft 530 kts 143°
2026-05-07 04:13 -17.54362 123.80467 32999 ft 531 kts 143°
2026-05-07 04:13 -17.59613 123.85898 33000 ft 529 kts 146°
2026-05-07 04:13 -17.62340 123.88505 33156 ft 530 kts 147°
2026-05-07 04:14 -17.65091 123.91059 33551 ft 527 kts 147°
2026-05-07 04:14 -17.67836 123.93581 34000 ft 524 kts 148°
2026-05-07 04:14 -17.70569 123.96088 34375 ft 521 kts 148°
2026-05-07 04:14 -17.73299 123.98598 34712 ft 520 kts 148°
2026-05-07 04:15 -17.76010 124.01101 34962 ft 520 kts 148°
2026-05-07 04:15 -17.81450 124.06146 35032 ft 522 kts 147°
2026-05-07 04:16 -17.86867 124.11198 35037 ft 519 kts 147°
2026-05-07 04:16 -17.92259 124.16232 35043 ft 518 kts 147°
2026-05-07 04:17 -17.97645 124.21259 35050 ft 518 kts 147°
2026-05-07 04:17 -18.03003 124.26261 35052 ft 518 kts 147°
2026-05-07 04:18 -18.08395 124.31300 35048 ft 520 kts 147°
2026-05-07 04:18 -18.13819 124.36373 35052 ft 521 kts 147°
2026-05-07 04:19 -18.19245 124.41454 35057 ft 523 kts 147°
2026-05-07 04:19 -18.24677 124.46546 35061 ft 524 kts 147°
2026-05-07 04:20 -18.30132 124.51664 35057 ft 525 kts 147°
2026-05-07 04:20 -18.35585 124.56785 35063 ft 525 kts 147°
2026-05-07 04:21 -18.43746 124.64456 35064 ft 526 kts 147°
2026-05-07 04:21 -18.49202 124.69591 35068 ft 526 kts 146°
2026-05-07 04:22 -18.54664 124.74736 35062 ft 525 kts 146°
2026-05-07 04:22 -18.60113 124.79872 35070 ft 525 kts 146°
2026-05-07 04:23 -18.65564 124.85014 35074 ft 525 kts 146°
2026-05-07 04:23 -18.71009 124.90156 35074 ft 526 kts 146°
2026-05-07 04:24 -18.76427 124.95277 35080 ft 527 kts 146°
2026-05-07 04:24 -18.81922 125.00474 35074 ft 528 kts 146°
2026-05-07 04:25 -18.87394 125.05657 35082 ft 528 kts 146°
2026-05-07 04:25 -18.92831 125.10810 35086 ft 529 kts 146°
2026-05-07 04:26 -18.98307 125.16005 35086 ft 529 kts 146°
2026-05-07 04:26 -19.03787 125.21210 35094 ft 529 kts 146°
2026-05-07 04:27 -19.09261 125.26412 35086 ft 529 kts 146°
2026-05-07 04:27 -19.14735 125.31620 35095 ft 529 kts 146°
2026-05-07 04:28 -19.20210 125.36832 35097 ft 529 kts 146°
2026-05-07 04:28 -19.25687 125.42051 35098 ft 530 kts 146°
2026-05-07 04:29 -19.31169 125.47282 35101 ft 530 kts 146°
2026-05-07 04:29 -19.36652 125.52518 35103 ft 530 kts 146°
2026-05-07 04:30 -19.42129 125.57752 35106 ft 531 kts 146°
2026-05-07 04:30 -19.47579 125.62966 35106 ft 531 kts 146°
2026-05-07 04:31 -19.53071 125.68225 35105 ft 531 kts 146°
2026-05-07 04:31 -19.58559 125.73486 35107 ft 532 kts 146°
2026-05-07 04:32 -19.64055 125.78759 35114 ft 532 kts 146°
2026-05-07 04:32 -19.69551 125.84036 35109 ft 533 kts 146°
2026-05-07 04:33 -19.75013 125.89288 35113 ft 533 kts 146°
2026-05-07 04:33 -19.80520 125.94587 35124 ft 534 kts 146°
2026-05-07 04:34 -19.86035 125.99899 35116 ft 535 kts 146°
2026-05-07 04:34 -19.91561 126.05227 35124 ft 536 kts 146°
2026-05-07 04:35 -19.97082 126.10556 35118 ft 536 kts 146°
2026-05-07 04:35 -20.02601 126.15888 35129 ft 537 kts 145°
2026-05-07 04:36 -20.08127 126.21233 35120 ft 537 kts 145°
2026-05-07 04:36 -20.13727 126.26415 35201 ft 533 kts 148°
2026-05-07 04:37 -20.19452 126.31436 35132 ft 532 kts 148°
2026-05-07 04:37 -20.25144 126.36439 35134 ft 530 kts 148°
2026-05-07 04:38 -20.30797 126.41467 35130 ft 528 kts 148°
2026-05-07 04:38 -20.36423 126.46503 35130 ft 526 kts 148°
2026-05-07 04:39 -20.42025 126.51524 35135 ft 526 kts 148°
2026-05-07 04:39 -20.47591 126.56512 35143 ft 526 kts 148°
2026-05-07 04:40 -20.53211 126.61552 35147 ft 528 kts 147°
2026-05-07 04:40 -20.58851 126.66614 35152 ft 530 kts 147°
2026-05-07 04:41 -20.64504 126.71695 35150 ft 532 kts 147°
2026-05-07 04:41 -20.70174 126.76798 35141 ft 533 kts 147°
2026-05-07 04:42 -20.75842 126.81904 35149 ft 533 kts 147°
2026-05-07 04:42 -20.81515 126.87020 35150 ft 533 kts 147°
2026-05-07 04:43 -20.87185 126.92138 35150 ft 533 kts 147°
2026-05-07 04:43 -20.92857 126.97262 35155 ft 533 kts 147°
2026-05-07 04:44 -20.97572 127.01526 35160 ft 533 kts 147°
2026-05-07 04:44 -21.03231 127.06648 35155 ft 533 kts 147°
2026-05-07 04:45 -21.08884 127.11770 35148 ft 532 kts 147°
2026-05-07 04:45 -21.14526 127.16888 35154 ft 532 kts 147°
2026-05-07 04:46 -21.20181 127.22022 35166 ft 532 kts 147°
2026-05-07 04:46 -21.25828 127.27154 35163 ft 532 kts 147°
2026-05-07 04:47 -21.31471 127.32288 35171 ft 532 kts 146°
2026-05-07 04:47 -21.37113 127.37427 35167 ft 532 kts 146°
2026-05-07 04:48 -21.42751 127.42567 35172 ft 532 kts 146°
2026-05-07 04:48 -21.48396 127.47720 35169 ft 532 kts 146°
2026-05-07 04:49 -21.54006 127.52845 35176 ft 532 kts 146°
2026-05-07 04:49 -21.59644 127.58002 35180 ft 532 kts 146°
2026-05-07 04:50 -21.65283 127.63165 35178 ft 532 kts 146°
2026-05-07 04:50 -21.70953 127.68362 35178 ft 532 kts 146°
2026-05-07 04:51 -21.76584 127.73530 35177 ft 532 kts 146°
2026-05-07 04:51 -21.82212 127.78699 35184 ft 532 kts 145°
2026-05-07 04:52 -21.87837 127.83871 35186 ft 531 kts 145°
2026-05-07 04:52 -21.93426 127.89016 35187 ft 531 kts 145°
2026-05-07 04:53 -21.99048 127.94197 35192 ft 531 kts 145°
2026-05-07 04:53 -22.04657 127.99372 35187 ft 531 kts 145°
2026-05-07 04:54 -22.10260 128.04546 35189 ft 530 kts 145°
2026-05-07 04:54 -22.15869 128.09731 35195 ft 530 kts 145°
2026-05-07 04:55 -22.21473 128.14917 35198 ft 531 kts 144°
2026-05-07 04:55 -22.27086 128.20118 35194 ft 530 kts 144°
2026-05-07 04:56 -22.32652 128.25281 35193 ft 530 kts 144°
2026-05-07 04:56 -22.38246 128.30476 35201 ft 530 kts 144°
2026-05-07 04:57 -22.43838 128.35674 35198 ft 530 kts 144°
2026-05-07 04:57 -22.49431 128.40879 35197 ft 530 kts 144°
2026-05-07 04:58 -22.55017 128.46083 35202 ft 529 kts 144°
2026-05-07 04:58 -22.60436 128.51138 35204 ft 529 kts 144°
2026-05-07 04:59 -22.66015 128.56347 35201 ft 529 kts 144°
2026-05-07 04:59 -22.71588 128.61557 35200 ft 529 kts 144°
2026-05-07 05:00 -22.77121 128.66734 35204 ft 529 kts 143°
2026-05-07 05:00 -22.82686 128.71948 35209 ft 528 kts 143°
2026-05-07 05:01 -22.88247 128.77164 35209 ft 528 kts 143°
2026-05-07 05:01 -22.93811 128.82390 35208 ft 528 kts 143°
2026-05-07 05:02 -22.99372 128.87618 35209 ft 528 kts 143°
2026-05-07 05:02 -23.04927 128.92844 35213 ft 528 kts 143°
2026-05-07 05:03 -23.10473 128.98070 35215 ft 528 kts 143°
2026-05-07 05:03 -23.15979 129.03265 35218 ft 527 kts 143°
2026-05-07 05:04 -23.21553 129.08532 35219 ft 527 kts 143°
2026-05-07 05:04 -23.27057 129.13737 35218 ft 527 kts 143°
2026-05-07 05:05 -23.32596 129.18982 35220 ft 527 kts 143°
2026-05-07 05:05 -23.38129 129.24228 35226 ft 527 kts 143°
2026-05-07 05:06 -23.43663 129.29479 35223 ft 527 kts 143°
2026-05-07 05:06 -23.49191 129.34732 35222 ft 527 kts 142°
2026-05-07 05:07 -23.54718 129.39989 35228 ft 527 kts 142°
2026-05-07 05:07 -23.60249 129.45257 35225 ft 527 kts 142°
2026-05-07 05:08 -23.65733 129.50486 35235 ft 527 kts 142°
2026-05-07 05:08 -23.71255 129.55757 35235 ft 527 kts 142°
2026-05-07 05:09 -23.76777 129.61034 35236 ft 527 kts 142°
2026-05-07 05:09 -23.82290 129.66309 35241 ft 527 kts 142°
2026-05-07 05:10 -23.87803 129.71591 35236 ft 526 kts 142°
2026-05-07 05:10 -23.93311 129.76874 35243 ft 526 kts 142°
2026-05-07 05:11 -23.98809 129.82153 35245 ft 526 kts 142°
2026-05-07 05:11 -24.04314 129.87444 35244 ft 526 kts 142°
2026-05-07 05:12 -24.09812 129.92736 35246 ft 526 kts 142°
2026-05-07 05:12 -24.15308 129.98033 35252 ft 526 kts 142°
2026-05-07 05:13 -24.20795 130.03327 35250 ft 526 kts 142°
2026-05-07 05:13 -24.26286 130.08630 35254 ft 526 kts 142°
2026-05-07 05:14 -24.31771 130.13935 35257 ft 526 kts 142°
2026-05-07 05:14 -24.37223 130.19214 35258 ft 526 kts 142°
2026-05-07 05:15 -24.42738 130.24561 35256 ft 526 kts 141°
2026-05-07 05:15 -24.48213 130.29875 35259 ft 525 kts 141°
2026-05-07 05:16 -24.53659 130.35167 35261 ft 525 kts 141°
2026-05-07 05:16 -24.59131 130.40492 35253 ft 525 kts 141°
2026-05-07 05:17 -24.64609 130.45827 35257 ft 525 kts 141°
2026-05-07 05:17 -24.70079 130.51163 35257 ft 525 kts 141°
2026-05-07 05:18 -24.75521 130.56477 35253 ft 525 kts 141°
2026-05-07 05:18 -24.81018 130.61852 35257 ft 525 kts 141°
2026-05-07 05:19 -24.86443 130.67163 35266 ft 525 kts 141°
2026-05-07 05:19 -24.91896 130.72508 35262 ft 525 kts 141°
2026-05-07 05:20 -24.97349 130.77860 35265 ft 524 kts 141°
2026-05-07 05:20 -25.02794 130.83210 35262 ft 524 kts 141°
2026-05-07 05:21 -25.10953 130.91241 35267 ft 523 kts 141°
2026-05-07 05:22 -25.16234 130.96777 35274 ft 525 kts 134°
2026-05-07 05:22 -25.20017 131.02117 35273 ft 528 kts 124°
2026-05-07 05:23 -25.24478 131.10157 35278 ft 528 kts 122°
2026-05-07 05:23 -25.27630 131.15930 35276 ft 528 kts 122°
2026-05-07 05:24 -25.31452 131.22856 35265 ft 528 kts 122°
2026-05-07 05:24 -25.35305 131.29784 35274 ft 528 kts 123°
2026-05-07 05:25 -25.39152 131.36698 35269 ft 528 kts 122°
2026-05-07 05:25 -25.42992 131.43615 35280 ft 528 kts 122°
2026-05-07 05:26 -25.46829 131.50540 35271 ft 528 kts 122°
2026-05-07 05:26 -25.50662 131.57471 35280 ft 527 kts 122°
2026-05-07 05:27 -25.54490 131.64401 35279 ft 527 kts 122°
2026-05-07 05:27 -25.58287 131.71287 35284 ft 527 kts 122°
2026-05-07 05:28 -25.62100 131.78213 35286 ft 527 kts 122°
2026-05-07 05:28 -25.65918 131.85156 35298 ft 527 kts 122°
2026-05-07 05:29 -25.69731 131.92101 35278 ft 527 kts 122°
2026-05-07 05:29 -25.73539 131.99047 35299 ft 526 kts 122°
2026-05-07 05:30 -25.77339 132.05989 35301 ft 526 kts 122°
2026-05-07 05:30 -25.81137 132.12938 35285 ft 526 kts 122°
2026-05-07 05:31 -25.84934 132.19897 35300 ft 526 kts 122°
2026-05-07 05:31 -25.88701 132.26810 35302 ft 526 kts 122°
2026-05-07 05:32 -25.92489 132.33773 35295 ft 526 kts 122°
2026-05-07 05:32 -25.96265 132.40724 35294 ft 526 kts 122°
2026-05-07 05:33 -26.00045 132.47694 35313 ft 526 kts 122°
2026-05-07 05:33 -26.03817 132.54657 35314 ft 525 kts 122°
2026-05-07 05:34 -26.07582 132.61621 35302 ft 525 kts 122°
2026-05-07 05:34 -26.11347 132.68595 35305 ft 525 kts 122°
2026-05-07 05:35 -26.15107 132.75570 35314 ft 525 kts 122°
2026-05-07 05:35 -26.18864 132.82550 35309 ft 525 kts 121°
2026-05-07 05:36 -26.22610 132.89520 35303 ft 525 kts 121°
2026-05-07 05:36 -26.26328 132.96447 35317 ft 524 kts 121°
2026-05-07 05:37 -26.30071 133.03433 35307 ft 524 kts 121°
2026-05-07 05:37 -26.33809 133.10422 35308 ft 524 kts 121°
2026-05-07 05:38 -26.37542 133.17412 35311 ft 524 kts 121°
2026-05-07 05:38 -26.41271 133.24406 35307 ft 524 kts 121°
2026-05-07 05:39 -26.44993 133.31397 35314 ft 524 kts 121°
2026-05-07 05:39 -26.48715 133.38401 35311 ft 524 kts 121°
2026-05-07 05:40 -26.52426 133.45393 35311 ft 524 kts 121°
2026-05-07 05:40 -26.56142 133.52406 35312 ft 523 kts 121°
2026-05-07 05:41 -26.59843 133.59401 35316 ft 523 kts 121°
2026-05-07 05:41 -26.63544 133.66409 35315 ft 523 kts 121°
2026-05-07 05:42 -26.67214 133.73369 35317 ft 522 kts 121°
2026-05-07 05:42 -26.70902 133.80372 35316 ft 522 kts 121°
2026-05-07 05:43 -26.74585 133.87379 35317 ft 522 kts 121°
2026-05-07 05:43 -26.78268 133.94395 35315 ft 522 kts 121°
2026-05-07 05:44 -26.81946 134.01412 35317 ft 522 kts 121°
2026-05-07 05:44 -26.85625 134.08445 35320 ft 522 kts 121°
2026-05-07 05:45 -26.89292 134.15464 35317 ft 522 kts 121°
2026-05-07 05:45 -26.92959 134.22496 35321 ft 522 kts 121°
2026-05-07 05:46 -26.96618 134.29523 35320 ft 522 kts 120°
2026-05-07 05:46 -27.00278 134.36563 35320 ft 522 kts 120°
2026-05-07 05:47 -27.03933 134.43605 35317 ft 522 kts 120°
2026-05-07 05:47 -27.07587 134.50657 35315 ft 522 kts 120°
2026-05-07 05:48 -27.11230 134.57697 35320 ft 522 kts 120°
2026-05-07 05:48 -27.14848 134.64702 35317 ft 522 kts 120°
2026-05-07 05:49 -27.18487 134.71758 35320 ft 521 kts 120°
2026-05-07 05:49 -27.22119 134.78813 35320 ft 521 kts 120°
2026-05-07 05:50 -27.25748 134.85872 35322 ft 521 kts 120°
2026-05-07 05:50 -27.29370 134.92930 35316 ft 521 kts 120°
2026-05-07 05:51 -27.32987 134.99991 35318 ft 521 kts 120°
2026-05-07 05:51 -27.36604 135.07061 35318 ft 521 kts 120°
2026-05-07 05:52 -27.40216 135.14136 35321 ft 521 kts 120°
2026-05-07 05:52 -27.43821 135.21206 35323 ft 521 kts 120°
2026-05-07 05:53 -27.47422 135.28282 35321 ft 520 kts 120°
2026-05-07 05:53 -27.51016 135.35355 35319 ft 520 kts 120°
2026-05-07 05:54 -27.54585 135.42390 35319 ft 520 kts 120°
2026-05-07 05:54 -27.58187 135.49471 35323 ft 520 kts 120°
2026-05-07 05:55 -27.61806 135.56539 35325 ft 520 kts 120°
2026-05-07 05:55 -27.65424 135.63617 35322 ft 520 kts 120°
2026-05-07 05:56 -27.69032 135.70698 35327 ft 520 kts 120°
2026-05-07 05:56 -27.72635 135.77786 35325 ft 521 kts 120°
2026-05-07 05:57 -27.76244 135.84898 35328 ft 521 kts 120°
2026-05-07 05:57 -27.79848 135.92010 35329 ft 521 kts 120°
2026-05-07 05:58 -27.83428 135.99086 35328 ft 521 kts 120°
2026-05-07 05:58 -27.87018 136.06193 35326 ft 521 kts 120°
2026-05-07 05:59 -27.90610 136.13317 35334 ft 521 kts 120°
2026-05-07 05:59 -27.94191 136.20432 35332 ft 520 kts 120°
2026-05-07 06:00 -27.97769 136.27553 35331 ft 520 kts 120°
2026-05-07 06:00 -28.01340 136.34671 35335 ft 520 kts 120°
2026-05-07 06:01 -28.04906 136.41792 35335 ft 520 kts 120°
2026-05-07 06:01 -28.08475 136.48930 35333 ft 520 kts 120°
2026-05-07 06:02 -28.12037 136.56068 35332 ft 520 kts 120°
2026-05-07 06:02 -28.15593 136.63205 35339 ft 520 kts 120°
2026-05-07 06:03 -28.19126 136.70309 35344 ft 520 kts 120°
2026-05-07 06:03 -28.22102 136.76300 35342 ft 520 kts 120°
2026-05-07 06:04 -28.25646 136.83459 35342 ft 520 kts 120°
2026-05-07 06:04 -28.29181 136.90619 35341 ft 520 kts 120°
2026-05-07 06:05 -28.32714 136.97788 35335 ft 520 kts 120°
2026-05-07 06:05 -28.36242 137.04960 35337 ft 520 kts 120°
2026-05-07 06:06 -28.39765 137.12132 35338 ft 520 kts 120°
2026-05-07 06:06 -28.43280 137.19300 35330 ft 519 kts 120°
2026-05-07 06:07 -28.46772 137.26435 35336 ft 519 kts 120°
2026-05-07 06:07 -28.50284 137.33622 35336 ft 519 kts 120°
2026-05-07 06:08 -28.53792 137.40813 35336 ft 520 kts 119°
2026-05-07 06:08 -28.57295 137.48007 35337 ft 520 kts 119°
2026-05-07 06:09 -28.60774 137.55165 35332 ft 520 kts 119°
2026-05-07 06:09 -28.64271 137.62371 35334 ft 520 kts 119°
2026-05-07 06:10 -28.67768 137.69590 35332 ft 520 kts 119°
2026-05-07 06:10 -28.71256 137.76805 35332 ft 520 kts 119°
2026-05-07 06:11 -28.74742 137.84026 35331 ft 520 kts 119°
2026-05-07 06:11 -28.78227 137.91259 35336 ft 520 kts 119°
2026-05-07 06:12 -28.81709 137.98499 35331 ft 520 kts 119°
2026-05-07 06:12 -28.85181 138.05731 35331 ft 520 kts 119°
2026-05-07 06:13 -28.88655 138.12979 35330 ft 520 kts 119°
2026-05-07 06:13 -28.92121 138.20224 35333 ft 520 kts 119°
2026-05-07 06:14 -28.95565 138.27436 35328 ft 520 kts 119°
2026-05-07 06:14 -28.99023 138.34689 35340 ft 520 kts 119°
2026-05-07 06:15 -29.02479 138.41952 35329 ft 520 kts 119°
2026-05-07 06:15 -29.05935 138.49229 35336 ft 520 kts 119°
2026-05-07 06:16 -29.09384 138.56502 35333 ft 520 kts 119°
2026-05-07 06:16 -29.12833 138.63791 35332 ft 520 kts 119°
2026-05-07 06:17 -29.16276 138.71078 35336 ft 520 kts 119°
2026-05-07 06:17 -29.19718 138.78378 35343 ft 520 kts 119°
2026-05-07 06:18 -29.23149 138.85665 35343 ft 520 kts 119°
2026-05-07 06:18 -29.26554 138.92914 35344 ft 520 kts 119°
2026-05-07 06:19 -29.30001 139.00265 35345 ft 520 kts 119°
2026-05-07 06:19 -29.33400 139.07524 35345 ft 520 kts 119°
2026-05-07 06:20 -29.36819 139.14841 35351 ft 520 kts 119°
2026-05-07 06:20 -29.40226 139.22147 35350 ft 519 kts 119°
2026-05-07 06:21 -29.43630 139.29457 35352 ft 519 kts 119°
2026-05-07 06:21 -29.47031 139.36777 35349 ft 519 kts 119°
2026-05-07 06:22 -29.50429 139.44103 35350 ft 519 kts 119°
2026-05-07 06:22 -29.55493 139.55046 35350 ft 519 kts 119°
2026-05-07 06:23 -29.58880 139.62382 35352 ft 519 kts 119°
2026-05-07 06:23 -29.62266 139.69731 35348 ft 519 kts 119°
2026-05-07 06:24 -29.65639 139.77067 35350 ft 519 kts 119°
2026-05-07 06:24 -29.69014 139.84415 35349 ft 519 kts 119°
2026-05-07 06:25 -29.72368 139.91724 35352 ft 519 kts 119°
2026-05-07 06:25 -29.75756 139.99117 35353 ft 519 kts 119°
2026-05-07 06:26 -29.79101 140.06434 35351 ft 519 kts 119°
2026-05-07 06:26 -29.82458 140.13792 35351 ft 519 kts 119°
2026-05-07 06:27 -29.85810 140.21154 35354 ft 519 kts 119°
2026-05-07 06:27 -29.89165 140.28534 35351 ft 520 kts 119°
2026-05-07 06:28 -29.92517 140.35923 35351 ft 520 kts 119°
2026-05-07 06:28 -29.95863 140.43313 35348 ft 520 kts 119°
2026-05-07 06:29 -29.99207 140.50713 35350 ft 520 kts 119°
2026-05-07 06:29 -30.02551 140.58125 35350 ft 520 kts 119°
2026-05-07 06:30 -30.05887 140.65537 35351 ft 520 kts 119°
2026-05-07 06:30 -30.09220 140.72954 35346 ft 520 kts 119°
2026-05-07 06:31 -30.12553 140.80386 35350 ft 520 kts 119°
2026-05-07 06:31 -30.15883 140.87828 35349 ft 521 kts 119°
2026-05-07 06:32 -30.19207 140.95268 35344 ft 521 kts 119°
2026-05-07 06:32 -30.22520 141.02709 35355 ft 521 kts 119°
2026-05-07 06:33 -30.25823 141.10160 35346 ft 521 kts 119°
2026-05-07 06:33 -30.29124 141.17621 35356 ft 521 kts 119°
2026-05-07 06:34 -30.32424 141.25093 35354 ft 521 kts 119°
2026-05-07 06:34 -30.35696 141.32513 35355 ft 521 kts 119°
2026-05-07 06:35 -30.38988 141.39984 35354 ft 521 kts 119°
2026-05-07 06:35 -30.42276 141.47458 35355 ft 520 kts 119°
2026-05-07 06:36 -30.45560 141.54937 35353 ft 520 kts 119°
2026-05-07 06:36 -30.48837 141.62420 35353 ft 520 kts 119°
2026-05-07 06:37 -30.52107 141.69898 35358 ft 520 kts 119°
2026-05-07 06:37 -30.55374 141.77385 35357 ft 519 kts 119°
2026-05-07 06:38 -30.58634 141.84873 35353 ft 519 kts 119°
2026-05-07 06:38 -30.61888 141.92361 35352 ft 519 kts 118°
2026-05-07 06:39 -30.65134 141.99844 35355 ft 519 kts 118°
2026-05-07 06:39 -30.68376 142.07335 35351 ft 518 kts 118°
2026-05-07 06:40 -30.71610 142.14821 35350 ft 518 kts 118°
2026-05-07 06:40 -30.74838 142.22309 35353 ft 518 kts 118°
2026-05-07 06:41 -30.78061 142.29798 35351 ft 518 kts 118°
2026-05-07 06:41 -30.81259 142.37245 35350 ft 517 kts 118°
2026-05-07 06:42 -30.84468 142.44735 35343 ft 517 kts 118°
2026-05-07 06:42 -30.87136 142.50972 35344 ft 517 kts 118°
2026-05-07 06:43 -30.90341 142.58479 35352 ft 517 kts 118°
2026-05-07 06:43 -30.93538 142.65982 35337 ft 517 kts 118°
2026-05-07 06:44 -30.96726 142.73481 35354 ft 516 kts 118°
2026-05-07 06:44 -30.99905 142.80970 35333 ft 515 kts 118°
2026-05-07 06:45 -31.03078 142.88459 35332 ft 515 kts 118°
2026-05-07 06:45 -31.06246 142.95949 35356 ft 514 kts 118°
2026-05-07 06:46 -31.09411 143.03448 35347 ft 514 kts 118°
2026-05-07 06:46 -31.12542 143.10882 35344 ft 513 kts 118°
2026-05-07 06:47 -31.15689 143.18369 35352 ft 512 kts 118°
2026-05-07 06:47 -31.18825 143.25848 35337 ft 511 kts 118°
2026-05-07 06:48 -31.21952 143.33318 35343 ft 510 kts 118°
2026-05-07 06:48 -31.25059 143.40756 35339 ft 509 kts 118°
2026-05-07 06:49 -31.28159 143.48193 35332 ft 507 kts 118°
2026-05-07 06:49 -31.31222 143.55555 35339 ft 506 kts 118°
2026-05-07 06:50 -31.34298 143.62964 35339 ft 505 kts 118°
2026-05-07 06:50 -31.37361 143.70357 35335 ft 504 kts 118°
2026-05-07 06:51 -31.40417 143.77747 35332 ft 504 kts 118°
2026-05-07 06:51 -31.43468 143.85142 35331 ft 504 kts 117°
2026-05-07 06:52 -31.46515 143.92540 35332 ft 504 kts 117°
2026-05-07 06:52 -31.49558 143.99945 35333 ft 505 kts 117°
2026-05-07 06:53 -31.52602 144.07366 35334 ft 506 kts 117°
2026-05-07 06:53 -31.55632 144.14768 35332 ft 507 kts 117°
2026-05-07 06:54 -31.58680 144.22231 35329 ft 507 kts 117°
2026-05-07 06:54 -31.61733 144.29723 35328 ft 508 kts 117°
2026-05-07 06:55 -31.64778 144.37209 35327 ft 509 kts 117°
2026-05-07 06:55 -31.67826 144.44720 35329 ft 509 kts 117°
2026-05-07 06:56 -31.70849 144.52184 35325 ft 510 kts 117°
2026-05-07 06:56 -31.73003 144.57512 35323 ft 509 kts 117°
2026-05-07 06:57 -31.76038 144.65031 35319 ft 510 kts 117°
2026-05-07 06:57 -31.79077 144.72577 35319 ft 510 kts 117°
2026-05-07 06:58 -31.82108 144.80121 35322 ft 510 kts 117°
2026-05-07 06:58 -31.85135 144.87669 35310 ft 510 kts 117°
2026-05-07 06:59 -31.88160 144.95228 35325 ft 510 kts 117°
2026-05-07 06:59 -31.91179 145.02790 35330 ft 510 kts 117°
2026-05-07 07:00 -31.94200 145.10373 35314 ft 511 kts 117°
2026-05-07 07:00 -31.97214 145.17954 35314 ft 511 kts 117°
2026-05-07 07:01 -32.00202 145.25487 35310 ft 511 kts 117°
2026-05-07 07:01 -32.03211 145.33088 35310 ft 512 kts 117°
2026-05-07 07:02 -32.06210 145.40693 35309 ft 512 kts 117°
2026-05-07 07:02 -32.09203 145.48311 35308 ft 512 kts 117°
2026-05-07 07:03 -32.12188 145.55924 35316 ft 511 kts 117°
2026-05-07 07:03 -32.15171 145.63546 35306 ft 511 kts 118°
2026-05-07 07:04 -32.18145 145.71163 35288 ft 510 kts 118°
2026-05-07 07:04 -32.21104 145.78757 35287 ft 509 kts 118°
2026-05-07 07:05 -32.24052 145.86341 35293 ft 508 kts 118°
2026-05-07 07:05 -32.26995 145.93926 35293 ft 507 kts 118°
2026-05-07 07:06 -32.29932 146.01511 35293 ft 507 kts 118°
2026-05-07 07:06 -32.32864 146.09102 35295 ft 507 kts 118°
2026-05-07 07:07 -32.35776 146.16658 35295 ft 508 kts 118°
2026-05-07 07:07 -32.38703 146.24269 35293 ft 509 kts 118°
2026-05-07 07:08 -32.41633 146.31904 35289 ft 509 kts 118°
2026-05-07 07:08 -32.44561 146.39553 35286 ft 510 kts 118°
2026-05-07 07:09 -32.47481 146.47197 35283 ft 510 kts 118°
2026-05-07 07:09 -32.50405 146.54870 35280 ft 509 kts 118°
2026-05-07 07:10 -32.53299 146.62481 35281 ft 509 kts 118°
2026-05-07 07:10 -32.56202 146.70132 35282 ft 508 kts 118°
2026-05-07 07:11 -32.59091 146.77763 35274 ft 507 kts 118°
2026-05-07 07:11 -32.61973 146.85392 35277 ft 506 kts 118°
2026-05-07 07:12 -32.64841 146.93002 35279 ft 505 kts 119°
2026-05-07 07:12 -32.67697 147.00597 35276 ft 504 kts 119°
2026-05-07 07:13 -32.70544 147.08183 35271 ft 503 kts 119°
2026-05-07 07:13 -32.73385 147.15771 35271 ft 503 kts 119°
2026-05-07 07:14 -32.76220 147.23362 35274 ft 502 kts 119°
2026-05-07 07:14 -32.79053 147.30961 35263 ft 503 kts 119°
2026-05-07 07:15 -32.81881 147.38565 35274 ft 503 kts 119°
2026-05-07 07:15 -32.84703 147.46174 35269 ft 503 kts 119°
2026-05-07 07:16 -32.87526 147.53801 35265 ft 503 kts 119°
2026-05-07 07:16 -32.90324 147.61376 35261 ft 503 kts 120°
2026-05-07 07:17 -32.93135 147.69003 35266 ft 504 kts 120°
2026-05-07 07:17 -32.95946 147.76651 35263 ft 504 kts 120°
2026-05-07 07:18 -32.98755 147.84307 35259 ft 504 kts 120°
2026-05-07 07:18 -33.01562 147.91979 35261 ft 505 kts 120°
2026-05-07 07:19 -33.04349 147.99612 35260 ft 505 kts 120°
2026-05-07 07:19 -33.07147 148.07295 35256 ft 505 kts 120°
2026-05-07 07:20 -33.09944 148.14992 35256 ft 505 kts 120°
2026-05-07 07:20 -33.12736 148.22696 35232 ft 506 kts 120°
2026-05-07 07:21 -33.15184 148.30555 35249 ft 510 kts 116°
2026-05-07 07:21 -33.17473 148.38583 35248 ft 511 kts 115°
2026-05-07 07:22 -33.19759 148.46617 35242 ft 511 kts 115°
2026-05-07 07:22 -33.22071 148.54667 35242 ft 512 kts 116°
2026-05-07 07:23 -33.24392 148.62725 35239 ft 514 kts 116°
2026-05-07 07:23 -33.26717 148.70813 35240 ft 515 kts 116°
2026-05-07 07:24 -33.28644 148.77538 35231 ft 516 kts 116°
2026-05-07 07:24 -33.30968 148.85675 35230 ft 517 kts 116°
2026-05-07 07:25 -33.34823 148.99229 35235 ft 518 kts 116°
2026-05-07 07:26 -33.36754 149.06037 35216 ft 519 kts 116°
2026-05-07 07:26 -33.39072 149.14238 35226 ft 520 kts 116°
2026-05-07 07:27 -33.41387 149.22447 35225 ft 521 kts 116°
2026-05-07 07:27 -33.43701 149.30676 35222 ft 522 kts 115°
2026-05-07 07:28 -33.46004 149.38890 35216 ft 523 kts 115°
2026-05-07 07:28 -33.48322 149.47179 35217 ft 525 kts 115°
2026-05-07 07:29 -33.50636 149.55483 35205 ft 526 kts 115°
2026-05-07 07:29 -33.52949 149.63806 35207 ft 527 kts 115°
2026-05-07 07:30 -33.55263 149.72156 35202 ft 529 kts 115°
2026-05-07 07:30 -33.57577 149.80532 35202 ft 530 kts 115°
2026-05-07 07:31 -33.59897 149.88956 35194 ft 532 kts 115°
2026-05-07 07:31 -33.62216 149.97399 35183 ft 533 kts 115°
2026-05-07 07:32 -33.64531 150.05858 35174 ft 534 kts 114°
2026-05-07 07:32 -33.66833 150.14295 35165 ft 535 kts 114°
2026-05-07 07:33 -33.69111 150.22665 35142 ft 537 kts 114°
2026-05-07 07:33 -33.71426 150.31200 35140 ft 538 kts 114°
2026-05-07 07:34 -33.73722 150.39758 35125 ft 539 kts 113°
2026-05-07 07:34 -33.76008 150.48347 35119 ft 539 kts 113°
2026-05-07 07:35 -33.78292 150.56942 35113 ft 540 kts 112°
2026-05-07 07:35 -33.80574 150.65551 35100 ft 541 kts 112°
2026-05-07 07:36 -33.82856 150.74183 35098 ft 541 kts 112°
2026-05-07 07:36 -33.85131 150.82820 35097 ft 542 kts 112°
2026-05-07 07:37 -33.87403 150.91474 35077 ft 543 kts 111°
2026-05-07 07:37 -33.89672 151.00141 35077 ft 543 kts 111°
2026-05-07 07:38 -33.91936 151.08821 35072 ft 543 kts 111°
2026-05-07 07:38 -33.94191 151.17487 35076 ft 542 kts 111°
2026-05-07 07:39 -33.96603 151.26078 35077 ft 541 kts 114°
2026-05-07 07:39 -33.99203 151.34526 35075 ft 540 kts 114°
2026-05-07 07:40 -34.01798 151.43025 35070 ft 540 kts 113°
2026-05-07 07:40 -34.04341 151.51549 35062 ft 540 kts 112°
2026-05-07 07:41 -34.06865 151.60085 35057 ft 540 kts 112°
2026-05-07 07:41 -34.09384 151.68621 35051 ft 539 kts 112°
2026-05-07 07:42 -34.11899 151.77152 35053 ft 539 kts 112°
2026-05-07 07:42 -34.14408 151.85689 35050 ft 539 kts 112°
2026-05-07 07:43 -34.16911 151.94233 35048 ft 539 kts 111°
2026-05-07 07:43 -34.19408 152.02777 35028 ft 539 kts 111°
2026-05-07 07:44 -34.21907 152.11343 35150 ft 543 kts 111°
2026-05-07 07:44 -34.23162 152.15651 35475 ft 543 kts 111°
2026-05-07 07:44 -34.24410 152.19942 35831 ft 542 kts 111°
2026-05-07 07:44 -34.25657 152.24239 36148 ft 541 kts 111°
2026-05-07 07:45 -34.26904 152.28540 36463 ft 541 kts 111°
2026-05-07 07:45 -34.28151 152.32847 36738 ft 541 kts 111°
2026-05-07 07:45 -34.29393 152.37147 36960 ft 543 kts 111°
2026-05-07 07:46 -34.31888 152.45797 37003 ft 545 kts 110°
2026-05-07 07:46 -34.34376 152.54453 36996 ft 542 kts 110°
2026-05-07 07:47 -34.36843 152.63064 36997 ft 541 kts 110°
2026-05-07 07:47 -34.39301 152.71668 36994 ft 540 kts 110°
2026-05-07 07:48 -34.41752 152.80270 36985 ft 541 kts 110°
2026-05-07 07:48 -34.44204 152.88903 36977 ft 543 kts 109°
2026-05-07 07:49 -34.46659 152.97577 36978 ft 545 kts 109°
2026-05-07 07:49 -34.49102 153.06230 36967 ft 547 kts 109°
2026-05-07 07:50 -34.51566 153.14989 36967 ft 549 kts 109°
2026-05-07 07:50 -34.54031 153.23780 36959 ft 551 kts 109°
2026-05-07 07:51 -34.56497 153.32600 36954 ft 552 kts 108°
2026-05-07 07:51 -34.58959 153.41434 36951 ft 553 kts 108°
2026-05-07 07:52 -34.61416 153.50276 36942 ft 553 kts 108°
2026-05-07 07:52 -34.63870 153.59137 36935 ft 553 kts 108°
2026-05-07 07:53 -34.66311 153.67981 36928 ft 552 kts 108°
2026-05-07 07:53 -34.68755 153.76862 36923 ft 552 kts 108°
2026-05-07 07:54 -34.71184 153.85719 36918 ft 553 kts 107°
2026-05-07 07:54 -34.73610 153.94594 36912 ft 554 kts 107°
2026-05-07 07:55 -34.76020 154.03436 36910 ft 555 kts 107°
2026-05-07 07:55 -34.78442 154.12355 36902 ft 556 kts 107°
2026-05-07 07:56 -34.80866 154.21307 36896 ft 557 kts 107°
2026-05-07 07:56 -34.83287 154.30279 36890 ft 558 kts 107°
2026-05-07 07:57 -34.85704 154.39265 36883 ft 558 kts 107°
2026-05-07 07:57 -34.88118 154.48271 36874 ft 559 kts 106°
2026-05-07 07:58 -34.90526 154.57285 36878 ft 560 kts 106°
2026-05-07 07:58 -34.92931 154.66318 36872 ft 561 kts 106°
2026-05-07 07:59 -34.95321 154.75327 36863 ft 562 kts 106°
2026-05-07 07:59 -34.97722 154.84403 36860 ft 563 kts 106°
2026-05-07 08:00 -35.00118 154.93497 36857 ft 564 kts 106°
2026-05-07 08:00 -35.02513 155.02610 36849 ft 565 kts 106°
2026-05-07 08:01 -35.04908 155.11753 36848 ft 565 kts 106°
2026-05-07 08:01 -35.07296 155.20900 36842 ft 565 kts 105°
2026-05-07 08:02 -35.09677 155.30057 36834 ft 566 kts 105°
2026-05-07 08:02 -35.12051 155.39215 36839 ft 564 kts 105°
2026-05-07 08:03 -35.14411 155.48353 36835 ft 563 kts 105°
2026-05-07 08:03 -35.16746 155.57426 36828 ft 562 kts 105°
2026-05-07 08:04 -35.19085 155.66543 36824 ft 561 kts 105°
2026-05-07 08:04 -35.21035 155.74172 36823 ft 561 kts 105°
2026-05-07 08:05 -35.23355 155.83278 36817 ft 560 kts 105°
2026-05-07 08:05 -35.25670 155.92392 36815 ft 560 kts 104°
2026-05-07 08:06 -35.27961 156.01446 36817 ft 560 kts 104°
2026-05-07 08:06 -35.30258 156.10559 36811 ft 560 kts 104°
2026-05-07 08:07 -35.32551 156.19682 36807 ft 560 kts 104°
2026-05-07 08:07 -35.34838 156.28816 36806 ft 560 kts 104°
2026-05-07 08:08 -35.37115 156.37946 36801 ft 561 kts 104°
2026-05-07 08:08 -35.39387 156.47087 36796 ft 561 kts 103°
2026-05-07 08:09 -35.41656 156.56245 36797 ft 561 kts 103°
2026-05-07 08:09 -35.43917 156.65406 36791 ft 561 kts 103°
2026-05-07 08:10 -35.46167 156.74556 36790 ft 560 kts 103°
2026-05-07 08:10 -35.48410 156.83713 36789 ft 560 kts 103°
2026-05-07 08:11 -35.50646 156.92873 36785 ft 560 kts 103°
2026-05-07 08:11 -35.52879 157.02054 36784 ft 560 kts 102°
2026-05-07 08:12 -35.55099 157.11213 36786 ft 560 kts 102°
2026-05-07 08:12 -35.57313 157.20382 36776 ft 559 kts 102°
2026-05-07 08:13 -35.59516 157.29542 36775 ft 559 kts 102°
2026-05-07 08:13 -35.61697 157.38642 36774 ft 559 kts 102°
2026-05-07 08:14 -35.63888 157.47817 36772 ft 558 kts 102°
2026-05-07 08:14 -35.66061 157.56956 36789 ft 558 kts 102°
2026-05-07 08:15 -35.68129 157.65680 36776 ft 558 kts 102°
2026-05-07 08:15 -35.70297 157.74860 36771 ft 558 kts 102°
2026-05-07 08:16 -35.72456 157.84036 36769 ft 558 kts 102°
2026-05-07 08:16 -35.74605 157.93208 36770 ft 558 kts 101°
2026-05-07 08:17 -35.76748 158.02385 36769 ft 557 kts 101°
2026-05-07 08:17 -35.78760 158.11591 36765 ft 554 kts 98°
2026-05-07 08:18 -35.80368 158.20851 36765 ft 552 kts 96°
2026-05-07 08:18 -35.81900 158.30116 36761 ft 551 kts 96°
2026-05-07 08:19 -35.83447 158.39366 36762 ft 550 kts 96°
2026-05-07 08:19 -35.85002 158.48537 36765 ft 550 kts 96°
2026-05-07 08:20 -35.86575 158.57819 36764 ft 549 kts 96°
2026-05-07 08:20 -35.88128 158.67032 36768 ft 549 kts 96°
2026-05-07 08:21 -35.89670 158.76249 36771 ft 549 kts 96°
2026-05-07 08:21 -35.91196 158.85415 36770 ft 549 kts 96°
2026-05-07 08:22 -35.92726 158.94648 36774 ft 549 kts 96°
2026-05-07 08:22 -35.94250 159.03893 36776 ft 549 kts 96°
2026-05-07 08:23 -35.95766 159.13136 36777 ft 549 kts 96°
2026-05-07 08:23 -35.97276 159.22387 36776 ft 550 kts 96°
2026-05-07 08:24 -35.98779 159.31644 36785 ft 550 kts 96°
2026-05-07 08:24 -36.00277 159.40915 36786 ft 550 kts 96°
2026-05-07 08:25 -36.01767 159.50186 36787 ft 550 kts 96°
2026-05-07 08:25 -36.03248 159.59449 36788 ft 550 kts 96°
2026-05-07 08:26 -36.05456 159.73348 36794 ft 549 kts 96°
2026-05-07 08:26 -36.06917 159.82606 36798 ft 549 kts 96°
2026-05-07 08:27 -36.08371 159.91869 36802 ft 549 kts 96°
2026-05-07 08:27 -36.09818 160.01139 36804 ft 549 kts 96°
2026-05-07 08:28 -36.11258 160.10406 36809 ft 549 kts 96°
2026-05-07 08:28 -36.12692 160.19687 36813 ft 548 kts 96°
2026-05-07 08:29 -36.14110 160.28913 36817 ft 548 kts 96°
2026-05-07 08:29 -36.15527 160.38187 36826 ft 548 kts 96°
2026-05-07 08:30 -36.16938 160.47468 36821 ft 548 kts 96°
2026-05-07 08:30 -36.18340 160.56742 36826 ft 548 kts 96°
2026-05-07 08:31 -36.19733 160.66004 36830 ft 547 kts 96°
2026-05-07 08:31 -36.21121 160.75284 36838 ft 547 kts 96°
2026-05-07 08:32 -36.22499 160.84546 36836 ft 546 kts 96°
2026-05-07 08:32 -36.23124 160.88766 36840 ft 546 kts 96°